Canyon City, OR

12:20 AM PDT on September 01, 2016 (GMT -0700)
Grant County Regional

Weather History for KGCD - September, 2013

Change the Weather History Date:

Friday, September 20, 2013

  Actual Average (KBNO) Record (KBNO)
Temperature  
Mean Temperature 68 °F 54 °F  
Max Temperature 83 °F 74 °F 92 °F (1939)
Min Temperature 54 °F 35 °F 20 °F (1983)
Degree Days  
Heating Degree Days 0 11  
Month to date heating degree days 154  
Since 1 July heating degree days 291  
Cooling Degree Days 4 0  
Month to date cooling degree days 7  
Year to date cooling degree days 213  
Growing Degree Days 18 (Base 50)    
Moisture  
Dew Point 26 °F    
Average Humidity 23    
Maximum Humidity 49    
Minimum Humidity 9    
Precipitation  
Precipitation 0.00 in 0.01 in 0.10 in (1945)
Month to date precipitation 0.28  
Year to date precipitation 7.26  
Sea Level Pressure  
Sea Level Pressure 29.77 in    
Wind  
Wind Speed 9 mph (SE)    
Max Wind Speed 18 mph    
Max Gust Speed 26 mph    
Visibility 10 miles    
Events      
T = Trace of Precipitation, MM = Missing Value Source: NWS Daily Summary

Daily Weather History Graph

Daily Weather History Graph

Search for Another Location

Airport or City:

Trip Planner

Search our weather history database for the weather conditions in past years. The results will help you decide how hot, cold, wet, or windy it might be!

Date:

Astronomy

Sep. 20, 2013 Rise Set
Actual Time 6:41 AM PDT 6:56 PM PDT
Civil Twilight 6:11 AM PDT 7:25 PM PDT
Nautical Twilight 5:37 AM PDT 7:59 PM PDT
Astronomical Twilight 5:02 AM PDT 8:34 PM PDT
Moon 7:27 PM PDT (9/20) 8:05 AM PDT (9/20)
Length of Visible Light 13h 13m
Length of Day
12h 15m
Full, 98% of the Moon is Illuminated
Sep 20
Full
Sep 26
Last Quarter
Oct 4
New
Oct 11
First Quarter
Oct 18
Full

Hourly Weather History & Observations

Time (PDT) Temp. Dew Point Humidity Pressure Visibility Wind Dir Wind Speed Gust Speed Precip Events Conditions
12:15 AM 57.9 °F 30.0 °F 35% 29.95 in 10.0 mi East 6.9 mph - N/A   Clear
12:35 AM 57.7 °F 29.8 °F 35% 29.94 in 10.0 mi East 8.1 mph - N/A   Clear
12:55 AM 57.0 °F 29.7 °F 35% 29.94 in 10.0 mi East 10.4 mph - N/A   Clear
1:15 AM 54.9 °F 29.8 °F 38% 29.94 in 10.0 mi East 9.2 mph - N/A   Clear
1:35 AM 56.5 °F 29.3 °F 35% 29.93 in 10.0 mi East 9.2 mph - N/A   Clear
1:55 AM 55.8 °F 28.8 °F 36% 29.92 in 10.0 mi East 5.8 mph - N/A   Clear
2:15 AM 56.8 °F 28.4 °F 34% 29.92 in 10.0 mi ESE 6.9 mph - N/A   Clear
2:35 AM 58.8 °F 27.1 °F 30% 29.91 in 10.0 mi ESE 8.1 mph - N/A   Clear
2:55 AM 58.5 °F 26.4 °F 29% 29.91 in 10.0 mi ESE 5.8 mph 9.2 mph N/A   Clear
3:15 AM 56.7 °F 25.9 °F 31% 29.90 in 10.0 mi ESE 9.2 mph - N/A   Clear
3:35 AM 56.8 °F 25.9 °F 30% 29.90 in 10.0 mi ESE 5.8 mph - N/A   Clear
3:55 AM 56.8 °F 25.7 °F 30% 29.90 in 10.0 mi ESE 6.9 mph - N/A   Clear
4:15 AM 56.5 °F 25.7 °F 31% 29.89 in 10.0 mi ESE 9.2 mph - N/A   Clear
4:35 AM 57.0 °F 26.1 °F 30% 29.89 in 10.0 mi East 11.5 mph - N/A   Clear
4:55 AM 56.5 °F 26.2 °F 31% 29.88 in 10.0 mi East 9.2 mph - N/A   Clear
5:15 AM 55.9 °F 26.4 °F 32% 29.87 in 10.0 mi East 5.8 mph - N/A   Clear
5:35 AM 55.4 °F 26.2 °F 33% 29.87 in 10.0 mi East 6.9 mph - N/A   Clear
5:55 AM 55.6 °F 26.1 °F 32% 29.87 in 10.0 mi East 6.9 mph - N/A   Clear
6:15 AM 55.9 °F 26.6 °F 32% 29.88 in 10.0 mi East 8.1 mph - N/A   Clear
6:35 AM 56.7 °F 26.6 °F 32% 29.87 in 10.0 mi East 9.2 mph - N/A   Clear
6:55 AM 55.9 °F 27.1 °F 33% 29.87 in 10.0 mi East 9.2 mph - N/A   Clear
7:15 AM 57.9 °F 26.8 °F 30% 29.87 in 10.0 mi East 9.2 mph - N/A   Clear
7:35 AM 58.6 °F 27.0 °F 30% 29.87 in 10.0 mi East 10.4 mph - N/A   Clear
7:55 AM 59.9 °F 27.1 °F 29% 29.86 in 10.0 mi East 8.1 mph - N/A   Clear
8:15 AM 60.8 °F 27.3 °F 28% 29.86 in 10.0 mi ESE 5.8 mph - N/A   Clear
8:35 AM 62.6 °F 27.3 °F 26% 29.85 in 10.0 mi East 9.2 mph - N/A   Clear
8:55 AM 65.1 °F 27.5 °F 24% 29.84 in 10.0 mi East 12.7 mph - N/A   Clear
9:15 AM 65.8 °F 28.4 °F 25% 29.83 in 10.0 mi East 10.4 mph - N/A   Clear
9:35 AM 66.6 °F 29.1 °F 25% 29.82 in 10.0 mi East 9.2 mph - N/A   Clear
9:55 AM 69.1 °F 29.3 °F 23% 29.82 in 10.0 mi East 9.2 mph - N/A   Clear
10:15 AM 71.4 °F 28.6 °F 20% 29.81 in 10.0 mi East 10.4 mph 16.1 mph N/A   Clear
10:35 AM 73.2 °F 27.1 °F 18% 29.81 in 10.0 mi ENE 6.9 mph - N/A   Clear
10:55 AM 73.6 °F 26.2 °F 17% 29.80 in 10.0 mi East 6.9 mph - N/A   Clear
11:15 AM 75.2 °F 26.6 °F 17% 29.79 in 10.0 mi ENE 4.6 mph - N/A   Clear
11:35 AM 75.9 °F 25.0 °F 15% 29.77 in 10.0 mi SW 10.4 mph 17.3 mph N/A   Clear
11:55 AM 79.3 °F 23.7 °F 13% 29.76 in 10.0 mi SE 18.4 mph 25.3 mph N/A   Clear
12:15 PM 79.3 °F 21.6 °F 12% 29.75 in 10.0 mi SSE 9.2 mph 23.0 mph N/A   Clear
12:35 PM 79.7 °F 21.7 °F 12% 29.74 in 10.0 mi SE 9.2 mph - N/A   Clear
12:55 PM 79.5 °F 20.5 °F 11% 29.74 in 10.0 mi SSE 13.8 mph 23.0 mph N/A   Clear
1:15 PM 81.1 °F 21.6 °F 11% 29.73 in 10.0 mi SSE 11.5 mph 20.7 mph N/A   Clear
1:35 PM 81.3 °F 22.6 °F 11% 29.71 in 10.0 mi South 5.8 mph 18.4 mph N/A   Clear
1:55 PM 82.2 °F 23.0 °F 11% 29.70 in 10.0 mi South 12.7 mph 20.7 mph N/A   Clear
2:15 PM 82.4 °F 23.5 °F 11% 29.69 in 10.0 mi SE 16.1 mph 26.5 mph N/A   Clear
2:35 PM 82.0 °F 24.1 °F 12% 29.69 in 10.0 mi South 18.4 mph 23.0 mph N/A   Clear
2:55 PM 82.4 °F 25.3 °F 12% 29.69 in 10.0 mi SSE 12.7 mph 20.7 mph N/A   Clear
3:15 PM 82.4 °F 24.8 °F 12% 29.67 in 10.0 mi SSE 9.2 mph 13.8 mph N/A   Clear
3:35 PM 83.3 °F 24.4 °F 12% 29.67 in 10.0 mi South 12.7 mph 19.6 mph N/A   Clear
3:55 PM 83.3 °F 24.3 °F 11% 29.66 in 10.0 mi SSE 15.0 mph 23.0 mph N/A   Clear
4:15 PM 82.9 °F 24.3 °F 12% 29.65 in 10.0 mi South 13.8 mph 23.0 mph N/A   Clear
4:35 PM 82.9 °F 23.0 °F 11% 29.64 in 10.0 mi SSE 12.7 mph 21.9 mph N/A   Clear
4:55 PM 82.8 °F 22.1 °F 11% 29.63 in 10.0 mi SSE 15.0 mph - N/A   Clear
5:15 PM 79.5 °F 21.2 °F 11% 29.62 in 10.0 mi South 8.1 mph 21.9 mph N/A   Clear
5:35 PM 78.4 °F 22.3 °F 12% 29.62 in 10.0 mi South 8.1 mph - N/A   Clear
5:55 PM 78.8 °F 23.2 °F 13% 29.62 in 10.0 mi South 11.5 mph 16.1 mph N/A   Clear
6:15 PM 77.2 °F 23.7 °F 14% 29.62 in 10.0 mi SSE 8.1 mph - N/A   Clear
6:35 PM 76.6 °F 24.6 °F 15% 29.63 in 10.0 mi South 8.1 mph - N/A   Clear
6:55 PM 75.7 °F 25.7 °F 16% 29.62 in 10.0 mi South 10.4 mph - N/A   Clear
7:15 PM 75.7 °F 25.9 °F 16% 29.63 in 10.0 mi South 11.5 mph - N/A   Clear
7:35 PM 76.3 °F 21.7 °F 13% 29.63 in 10.0 mi SW 9.2 mph - N/A   Clear
7:55 PM 73.8 °F 21.0 °F 14% 29.64 in 10.0 mi West 6.9 mph - N/A   Scattered Clouds
8:15 PM 73.6 °F 19.0 °F 13% 29.65 in 10.0 mi WSW 8.1 mph - N/A   Mostly Cloudy
8:35 PM 74.3 °F 10.8 °F 9% 29.66 in 10.0 mi West 12.7 mph 16.1 mph N/A   Clear
8:55 PM 71.2 °F 25.0 °F 18% 29.67 in 10.0 mi West 8.1 mph - N/A   Clear
9:15 PM 68.9 °F 29.3 °F 23% 29.67 in 10.0 mi WNW 3.5 mph - N/A   Clear
9:35 PM 67.3 °F 29.7 °F 25% 29.68 in 10.0 mi WSW 6.9 mph - N/A   Clear
9:55 PM 67.1 °F 30.7 °F 26% 29.68 in 10.0 mi WSW 4.6 mph - N/A   Clear
10:15 PM 66.0 °F 31.8 °F 28% 29.68 in 10.0 mi WSW 6.9 mph - N/A   Clear
10:35 PM 64.8 °F 34.3 °F 32% 29.70 in 10.0 mi West 17.3 mph - N/A   Clear
10:55 PM 62.2 °F 37.4 °F 40% 29.71 in 10.0 mi West 18.4 mph 23.0 mph N/A   Clear
11:15 PM 61.0 °F 39.0 °F 44% 29.72 in 10.0 mi West 15.0 mph - N/A   Clear
11:35 PM 60.4 °F 39.7 °F 46% 29.72 in 10.0 mi West 13.8 mph - N/A   Clear
11:55 PM 59.9 °F 40.8 °F 49% 29.72 in 10.0 mi West 16.1 mph 20.7 mph N/A   Clear